Date String (YYYY-MM-DD hh:mm:ss) UTC,Instrument flags,Ambient pressure (hPa),Sample flow (lpm),Bypass flow (lpm),Sample temperature (°C),Ambient temperature (°C),ASC tube jacket temperature (°C),LED temperature (°C),Box temperature (°C),Sample RH (%),Span deviation,Mass concentration (μg/m³),Mass concentration (μg/m³),Mass concentration (μg/m³)
DateTimeUTC,F1_M11,P_M11,Q1_M11,Q2_M11,T1_M11,T2_M11,T3_M11,T4_M11,T5_M11,U1_M11,ZSPAN_M11,X0_M11,X2_M11,X1_M11
2021-10-28 06:00:00,,0826.6,5.00,0.00,25.2,24.4,00.0,34.5,27.0,11.5,0000.0,0002.65,0001.36,0000.96
2021-10-28 06:01:00,,0826.5,5.00,0.00,25.2,24.4,00.0,34.5,27.0,11.5,0000.0,0002.77,0001.41,0000.96
2021-10-28 06:02:00,,0826.6,4.99,0.00,25.2,24.4,00.0,34.5,27.0,11.5,0000.0,0002.54,0001.34,0000.96
2021-10-28 06:03:00,,0826.6,4.99,0.00,25.2,24.4,00.0,34.5,27.0,11.5,0000.0,0002.55,0001.32,0000.97
2021-10-28 06:04:00,,0826.6,5.01,0.00,25.3,24.5,00.0,34.5,27.1,11.5,0000.0,0002.57,0001.33,0000.97
2021-10-28 06:05:00,,0826.7,5.01,0.00,25.3,24.5,00.0,34.5,27.1,11.5,0000.0,0002.50,0001.33,0000.97
2021-10-28 06:06:00,,0826.8,5.00,0.00,25.3,24.6,00.0,34.5,27.1,11.5,0000.0,0002.56,0001.34,0000.97
2021-10-28 06:07:00,,0826.8,4.99,0.00,25.3,24.6,00.0,34.5,27.1,11.5,0000.0,0002.48,0001.32,0000.96
2021-10-28 06:08:00,,0826.8,5.00,0.00,25.3,24.6,00.0,34.4,27.2,11.5,0000.0,0002.52,0001.34,0000.96
2021-10-28 06:09:00,,0826.8,4.99,0.00,25.3,24.6,00.0,34.5,27.2,11.4,0000.0,0002.29,0001.34,0000.96
2021-10-28 06:10:00,,0826.8,5.01,0.00,25.4,24.7,00.0,34.5,27.2,11.4,0000.0,0002.51,0001.38,0000.96
2021-10-28 06:11:00,,0826.7,4.99,0.00,25.4,24.7,00.0,34.5,27.3,11.4,0000.0,0003.07,0001.38,0000.97
2021-10-28 06:12:00,,0826.7,5.00,0.00,25.4,24.7,00.0,34.5,27.3,11.4,0000.0,0002.96,0001.35,0000.97
2021-10-28 06:13:00,,0826.7,5.01,0.00,25.4,24.8,00.0,34.5,27.3,11.4,0000.0,0002.91,0001.34,0000.97
2021-10-28 06:14:00,,0826.7,4.99,0.00,25.4,24.8,00.0,34.5,27.3,11.4,0000.0,0002.95,0001.32,0000.95
2021-10-28 06:15:00,,0826.8,5.01,0.00,25.4,24.8,00.0,34.5,27.3,11.4,0000.0,0002.92,0001.32,0000.95
2021-10-28 06:16:00,,0826.7,5.00,0.00,25.4,24.8,00.0,34.5,27.3,11.4,0000.0,0002.89,0001.31,0000.95
2021-10-28 06:17:00,,0826.7,4.98,0.00,25.4,24.8,00.0,34.5,27.3,11.4,0000.0,0002.79,0001.29,0000.95
2021-10-28 06:18:00,,0826.7,5.01,0.00,25.5,24.8,00.0,34.5,27.3,11.4,0000.0,0002.84,0001.25,0000.95
2021-10-28 06:19:00,,0826.7,4.98,0.00,25.5,24.8,00.0,34.5,27.3,11.4,0000.0,0003.09,0001.26,0000.95
2021-10-28 06:20:00,,0826.8,5.00,0.00,25.5,24.8,00.0,34.5,27.3,11.4,0000.0,0003.15,0001.27,0000.94
2021-10-28 06:21:00,,0826.8,5.00,0.00,25.4,24.8,00.0,34.5,27.3,11.4,0000.0,0003.07,0001.22,0000.94
2021-10-28 06:22:00,,0826.8,5.01,0.00,25.4,24.7,00.0,34.5,27.2,11.4,0000.0,0002.77,0001.25,0000.93
2021-10-28 06:23:00,,0826.8,5.00,0.00,25.4,24.7,00.0,34.5,27.2,11.4,0000.0,0003.10,0001.30,0000.93
2021-10-28 06:24:00,,0826.8,4.98,0.00,25.4,24.7,00.0,34.5,27.2,11.4,0000.0,0003.20,0001.31,0000.92
2021-10-28 06:25:00,,0827.0,5.01,0.00,25.4,24.7,00.0,34.5,27.2,11.5,0000.0,0003.09,0001.29,0000.92
2021-10-28 06:26:00,,0827.1,5.00,0.00,25.4,24.7,00.0,34.5,27.2,11.5,0000.0,0002.96,0001.25,0000.91
2021-10-28 06:27:00,,0827.0,5.00,0.00,25.4,24.7,00.0,34.5,27.3,11.5,0000.0,0003.24,0001.24,0000.90
2021-10-28 06:28:00,,0827.0,5.00,0.00,25.4,24.7,00.0,34.5,27.3,11.5,0000.0,0003.47,0001.23,0000.90
2021-10-28 06:29:00,,0826.8,5.00,0.00,25.4,24.7,00.0,34.5,27.3,11.4,0000.0,0003.42,0001.24,0000.89
2021-10-28 06:30:00,,0826.9,4.99,0.00,25.5,24.8,00.0,34.5,27.3,11.5,0000.0,0003.26,0001.22,0000.89
2021-10-28 06:31:00,,0827.0,5.00,0.00,25.5,24.8,00.0,34.5,27.4,11.5,0000.0,0003.64,0001.22,0000.88
2021-10-28 06:32:00,,0826.9,5.00,0.00,25.5,24.8,00.0,34.5,27.4,11.5,0000.0,0004.59,0001.25,0000.88
2021-10-28 06:33:00,,0826.9,5.01,0.00,25.5,24.8,00.0,34.5,27.4,11.5,0000.0,0004.39,0001.22,0000.87
2021-10-28 06:34:00,,0826.7,5.00,0.00,25.5,24.8,00.0,34.5,27.4,11.5,0000.0,0004.03,0001.19,0000.86
2021-10-28 06:35:00,,0826.7,5.00,0.00,25.5,24.8,00.0,34.5,27.4,11.4,0000.0,0004.18,0001.20,0000.87
2021-10-28 06:36:00,,0826.7,5.00,0.00,25.5,24.8,00.0,34.5,27.4,11.5,0000.0,0004.51,0001.22,0000.86
2021-10-28 06:37:00,,0826.7,5.00,0.00,25.5,24.8,00.0,34.5,27.3,11.5,0000.0,0004.60,0001.24,0000.86
2021-10-28 06:38:00,,0826.7,5.00,0.00,25.4,24.7,00.0,34.5,27.3,11.5,0000.0,0004.30,0001.25,0000.85
2021-10-28 06:39:00,,0826.8,5.00,0.00,25.4,24.7,00.0,34.5,27.3,11.5,0000.0,0004.03,0001.23,0000.85
2021-10-28 06:40:00,,0827.1,5.00,0.00,25.4,24.7,00.0,34.5,27.3,11.5,0000.0,0004.02,0001.22,0000.85
2021-10-28 06:41:00,,0826.8,5.00,0.00,25.4,24.7,00.0,34.5,27.2,11.6,0000.0,0003.93,0001.23,0000.85
2021-10-28 06:42:00,,0826.9,5.00,0.00,25.4,24.7,00.0,34.5,27.2,11.7,0000.0,0004.11,0001.24,0000.86
2021-10-28 06:43:00,,0826.9,4.99,0.00,25.4,24.6,00.0,34.5,27.2,11.7,0000.0,0003.77,0001.22,0000.85
2021-10-28 06:44:00,,0826.9,5.01,0.00,25.4,24.6,00.0,34.5,27.2,11.7,0000.0,0003.80,0001.23,0000.86
2021-10-28 06:45:00,,0826.9,4.99,0.00,25.4,24.6,00.0,34.5,27.2,11.7,0000.0,0003.68,0001.21,0000.86
2021-10-28 06:46:00,,0826.9,5.00,0.00,25.3,24.6,00.0,34.5,27.2,11.7,0000.0,0003.49,0001.18,0000.85
2021-10-28 06:47:00,,0827.0,5.01,0.00,25.3,24.6,00.0,34.5,27.2,11.8,0000.0,0003.81,0001.19,0000.85
2021-10-28 06:48:00,,0826.9,5.00,0.00,25.3,24.6,00.0,34.5,27.2,11.8,0000.0,0004.94,0001.20,0000.85
2021-10-28 06:49:00,,0827.0,5.00,0.00,25.3,24.6,00.0,34.4,27.2,11.8,0000.0,0005.85,0001.23,0000.87
2021-10-28 06:50:00,,0827.0,4.99,0.00,25.3,24.6,00.0,34.4,27.2,11.8,0000.0,0005.92,0001.26,0000.88
2021-10-28 06:51:00,,0827.1,5.00,0.00,25.3,24.6,00.0,34.4,27.2,11.8,0000.0,0006.38,0001.28,0000.89
2021-10-28 06:52:00,,0827.1,5.01,0.00,25.3,24.5,00.0,34.4,27.1,11.8,0000.0,0007.34,0001.27,0000.89
2021-10-28 06:53:00,,0827.0,5.00,0.00,25.3,24.5,00.0,34.4,27.1,11.8,0000.0,0006.83,0001.25,0000.89
2021-10-28 06:54:00,,0827.0,5.00,0.00,25.3,24.5,00.0,34.4,27.1,11.9,0000.0,0006.18,0001.28,0000.91
2021-10-28 06:55:00,,0827.2,4.99,0.00,25.3,24.5,00.0,34.4,27.1,11.9,0000.0,0006.74,0001.31,0000.92
2021-10-28 06:56:00,,0827.2,5.01,0.00,25.3,24.5,00.0,34.4,27.1,11.9,0000.0,0006.81,0001.31,0000.94
2021-10-28 06:57:00,,0827.1,5.00,0.00,25.3,24.5,00.0,34.4,27.1,11.9,0000.0,0007.18,0001.33,0000.96
2021-10-28 06:58:00,,0827.1,5.00,0.00,25.3,24.5,00.0,34.4,27.1,11.9,0000.0,0007.28,0001.33,0000.98
2021-10-28 06:59:00,,0827.1,5.00,0.00,25.3,24.5,00.0,34.4,27.2,11.9,0000.0,0006.47,0001.31,0001.00
